Location: Chin
(49.7667°N, 112.4500°W)
Time: 10:20:29
(UTC+00:00)

Envisat - Pass Details

Date: 01 December 2021
Orbit: 764 x 766 km, 98.2° (Epoch: 24 January)

Event Time Altitude Azimuth Distance (km) Brightness Sun altitude
Rises 14:02:19 0° 5° (N) 3,247 6.1 -9.9°
Reaches altitude 10° 14:05:02 10° 351° (N) 2,316 5.2 -9.5°
Maximum altitude 14:08:57 23° 301° (WNW) 1,592 4.1 -8.9°
Drops below altitude 10° 14:12:52 10° 250° (WSW) 2,304 5.1 -8.3°
Sets 14:15:34 0° 236° (SW) 3,225 5.9 -7.9°
